[[{"header":{"parameterUnit":"m.s-1","parameterCategory":1,"la1":30.2991,"la2":30.254,"lo1":-89.0895,"lo2":-89.0444,"dy":0.0017,"dx":0.0017,"nx":28,"ny":28,"refTime":"2024-05-15T03:00:00:Z","depth":0,"parameterNumber":2,"parameterNumberName":"U-component_of_WINDS"},"data":[0,0,0,0,0,0,0,0,0,0,0,0,0,0,0,0,0,0,0,0,0,0,0,0,0,0,0,0,0,0,0,0,0,0,0,0,0,0,0,0,0,0,0,0,0,0,0,0,0,0,0,0,0,0,0,0,0,0,4.069,4.0692,0,4.0888,4.089,4.0893,4.0839,4.0835,4.0831,4.0827,4.1038,4.1047,4.1056,0,0,0,0,0,0,0,0,0,0,0,0,0,4.0274,4.0282,4.069,4.0693,4.0695,4.0888,4.0891,4.0893,4.084,4.0835,4.083,4.0825,4.1035,4.1046,4.1057,0,0,0,0,0,0,0,0,0,0,0,0,0,4.0462,4.0284,4.069,4.0691,4.0693,4.0887,4.0891,4.0894,4.0841,4.0835,4.0829,4.0823,4.1031,4.1045,4.1059,4.1265,0,0,4.1101,4.1108,0,0,0,0,0,0,0,0,4.0451,4.0477,4.0689,4.0692,4.0694,4.0832,4.0821,4.1019,4.0842,4.0785,4.0827,4.082,4.0975,4.0993,4.1044,4.1275,4.1284,4.1103,4.1111,4.1117,4.1121,0,0,0,0,0,0,0,4.0438,4.0468,4.0769,4.0692,4.0695,4.0685,4.0705,4.0858,4.0912,4.079,4.0786,4.081,4.0975,4.103,4.1048,4.1287,4.1102,4.1115,4.1123,4.1129,4.1702,4.1708,0,0,0,0,0,0,4.0422,4.0458,4.0762,4.0775,4.0555,4.0697,4.072,4.0794,4.091,4.0921,4.0815,4.0807,4.1009,4.1032,4.1056,4.1307,4.1117,4.113,4.1138,4.1695,4.1703,4.1711,0,0,0,0,0,0,4.0413,4.045,4.0754,4.0615,4.0653,4.0711,4.0795,4.0801,4.0856,4.0929,4.0939,4.0861,4.1006,4.1036,4.1214,4.1314,4.1137,4.1149,4.1687,4.1698,4.1707,4.1811,0,0,0,0,0,0,4.0401,4.0447,4.0524,4.0617,4.0661,4.0907,4.0801,4.081,4.088,4.0871,4.0974,4.0986,4.1003,4.1193,4.1228,4.133,4.116,4.1678,4.1692,4.1704,4.1799,4.1824,4.1845,0,0,0,0,0,4.0387,4.0546,4.0528,4.0565,4.0758,4.0913,4.0938,4.0952,4.0888,4.0967,4.1014,4.0983,4.1297,4.1212,4.125,4.1358,4.1672,4.1688,4.1703,4.1789,4.1819,4.1844,0,0,0,0,0,0,4.0465,4.0559,4.0539,4.0733,4.0815,4.0903,4.1004,4.0983,4.1087,4.1075,4.1091,4.1115,4.1298,4.1345,4.1249,4.1566,4.1476,4.1499,4.1528,4.1557,4.158,4.1565,4.1172,0,0,0,0,0,4.0505,4.062,4.0696,4.086,4.0902,4.0946,4.1014,4.1018,4.1105,4.114,4.1199,4.1287,4.1406,4.1484,4.1597,4.1805,4.1829,4.1899,4.1922,4.194,4.1961,4.2078,4.2111,4.1761,4.1761,4.1761,0,0,4.0588,4.0653,4.0726,4.0878,4.0942,4.1064,4.0976,4.1108,4.12,4.1161,4.1332,4.1379,4.1479,4.1673,4.1762,4.1719,4.2063,4.196,4.1974,4.1985,4.2098,4.2131,4.216,4.1771,4.177,4.1768,0,0,4.0803,4.0863,4.1007,4.1073,4.117,4.1198,4.1233,4.1325,4.1354,4.1526,4.15,4.1611,4.1814,4.1886,4.195,4.2194,4.217,4.223,4.2351,4.2465,4.2492,4.2517,4.2607,4.2638,4.2251,4.2251,4.2251,0,4.0895,4.1075,4.1084,4.122,4.1289,4.1257,4.1405,4.1469,4.16,4.165,4.1599,4.1854,4.1919,4.2131,4.2191,4.2243,4.2286,4.222,4.2487,4.2512,4.2535,4.2621,4.2654,4.2258,4.2257,4.2256,4.2256,0,4.1186,4.1311,4.1417,4.1541,4.1622,4.1763,4.1797,4.1878,4.1875,4.191,4.2088,4.2164,4.2293,4.2343,4.2342,4.2557,4.2528,4.2482,4.2392,4.2575,4.2656,4.2689,4.2268,4.2265,4.2263,4.2262,0,0,4.1456,4.1584,4.1623,4.168,4.1786,4.1885,4.2026,4.215,4.2221,4.2312,4.2433,4.2606,4.2565,4.2637,4.2645,4.2744,4.2937,4.2687,4.2689,4.2733,4.3181,4.3217,4.3254,4.292,4.2926,4.2931,4.3174,0,4.1682,4.1927,4.194,4.2165,4.2283,4.2255,4.2378,4.2458,4.2495,4.2603,4.2644,4.2768,4.2702,4.2746,4.2843,4.2892,4.3027,4.2875,4.3037,4.3042,4.3015,4.3296,4.3334,4.3559,4.3205,4.3211,4.3215,0,4.1978,4.2077,4.2313,4.2403,4.2454,4.2564,4.268,4.2782,4.2874,4.2893,4.2975,4.2968,4.3116,4.3019,4.3226,4.3122,4.3189,4.3223,4.3233,4.325,4.3141,4.3324,4.3631,4.3666,4.3264,4.326,4.3257,0,4.2155,4.2347,4.2514,4.2563,4.2673,4.2751,4.2801,4.2886,4.2961,4.3063,4.3112,4.3231,4.3297,4.3391,4.3418,4.3344,4.3625,4.353,4.3649,4.3649,4.3711,4.3707,4.4035,4.375,4.375,4.3749,4.3748,0,4.2407,4.2553,4.2595,4.2697,4.2861,4.2876,4.3039,4.3084,4.316,4.3274,4.3257,4.3365,4.3393,4.3507,4.3529,4.3698,4.3728,4.3751,4.3755,4.3754,4.3751,4.3799,4.3786,4.3758,4.3756,4.3754,4.3753,0,4.2633,4.2666,4.2846,4.2935,4.2961,4.3078,4.3155,4.3256,4.329,4.3434,4.3469,4.3524,4.3657,4.3693,4.3853,4.3868,4.4068,4.4057,4.4037,4.4037,4.4156,4.4145,4.4528,4.4581,4.4259,4.4262,4.4264,0,4.2793,4.2904,4.3005,4.3078,4.3131,4.325,4.3326,4.3345,4.3425,4.3539,4.3627,4.3757,4.3863,4.4077,4.4134,4.4257,4.425,4.4376,4.4269,4.4264,4.4256,4.425,4.4263,4.4397,4.4401,4.4403,4.4406,0,4.3074,4.3085,4.3193,4.3309,4.3399,4.3491,4.358,4.3642,4.3674,4.3766,4.39,4.3982,4.4145,4.4277,4.4401,4.4455,4.4439,4.4439,4.4473,4.4474,4.4459,4.4471,4.4095,4.443,4.4428,4.4426,4.4425,4.4424,4.3274,4.3373,4.3459,4.3581,4.3649,4.3733,4.3832,4.3878,4.399,4.4123,4.4128,4.4276,4.4367,4.4532,4.4593,4.4711,4.4674,4.4723,4.4737,4.4749,4.4761,4.4438,4.4734,4.4733,4.4733,4.4732,4.4731,0,4.3557,4.3611,4.3723,4.3846,4.3943,4.3915,4.4012,4.4096,4.4225,4.431,4.4414,4.4571,4.4699,4.4765,4.4892,4.4974,4.497,4.5007,4.5003,4.5017,4.4785,4.4744,4.5009,4.5009,4.5009,4.5009,4.5009,4.5009,4.3715,4.3882,4.3903,4.4105,4.4159,4.4301,4.4359,4.4438,4.4506,4.4681,4.4786,4.4827,4.4906,4.5039,4.5156,4.5173,4.5222,4.5265,4.5278,4.5061,4.5032,4.5005,4.4967,4.5275,4.5275,4.5499,4.5501,4.5503]},{"header":{"parameterUnit":"m.s-1","parameterCategory":1,"la1":30.2991,"la2":30.254,"lo1":-89.0895,"lo2":-89.0444,"dy":0.0017,"dx":0.0017,"nx":28,"ny":28,"refTime":"2024-05-15T03:00:00:Z","depth":0,"parameterNumber":3,"parameterNumberName":"V-component_of_WINDS"},"data":[0,0,0,0,0,0,0,0,0,0,0,0,0,0,0,0,0,0,0,0,0,0,0,0,0,0,0,0,0,0,0,0,0,0,0,0,0,0,0,0,0,0,0,0,0,0,0,0,0,0,0,0,0,0,0,0,0,0,3.0576,3.0579,0,3.0855,3.0858,3.0862,3.0888,3.0885,3.0882,3.0879,3.1173,3.1184,3.1194,0,0,0,0,0,0,0,0,0,0,0,0,0,3.0074,3.0083,3.0576,3.058,3.0583,3.0855,3.0858,3.0862,3.0889,3.0885,3.0881,3.0878,3.117,3.1182,3.1195,0,0,0,0,0,0,0,0,0,0,0,0,0,3.0317,3.0086,3.0575,3.0629,3.0636,3.0854,3.0859,3.0863,3.0889,3.0885,3.0881,3.0876,3.1166,3.1181,3.1197,3.1383,0,0,3.1245,3.1252,0,0,0,0,0,0,0,0,3.0303,3.0335,3.0617,3.0625,3.0634,3.0832,3.0789,3.1038,3.0891,3.0794,3.0879,3.0874,3.1064,3.1088,3.115,3.1397,3.1409,3.1247,3.1256,3.1263,3.1268,0,0,0,0,0,0,0,3.0286,3.0323,3.0687,3.0622,3.0632,3.0641,3.0671,3.0837,3.0951,3.0802,3.0804,3.0836,3.1068,3.1135,3.1157,3.1414,3.1246,3.126,3.127,3.1276,3.1829,3.1834,0,0,0,0,0,0,3.0258,3.0309,3.0678,3.0695,3.0454,3.0654,3.0687,3.0773,3.0949,3.0971,3.084,3.0837,3.111,3.1139,3.1168,3.1399,3.1263,3.1278,3.1287,3.1824,3.183,3.1836,0,0,0,0,0,0,3.0247,3.0291,3.0667,3.0503,3.0551,3.0667,3.0764,3.0781,3.0848,3.0977,3.0999,3.0887,3.1108,3.1145,3.1329,3.1409,3.1285,3.1299,3.1818,3.1826,3.1833,3.1861,0,0,0,0,0,0,3.0233,3.0287,3.0357,3.0504,3.056,3.0821,3.0769,3.079,3.0874,3.0873,3.1027,3.1049,3.1107,3.1305,3.1345,3.1429,3.1312,3.1811,3.1821,3.183,3.1854,3.1869,3.1882,0,0,0,0,0,3.0215,3.0355,3.036,3.0405,3.065,3.0826,3.0858,3.092,3.0881,3.0954,3.1037,3.1044,3.1393,3.1324,3.1369,3.1459,3.1806,3.1818,3.183,3.1847,3.1866,3.1882,0,0,0,0,0,0,3.0218,3.0376,3.0383,3.0575,3.0686,3.083,3.0923,3.0937,3.1064,3.1058,3.1132,3.1167,3.1348,3.1422,3.1341,3.1649,3.1596,3.1617,3.1594,3.1613,3.1627,3.1607,3.1325,0,0,0,0,0,3.024,3.0367,3.0499,3.0656,3.0711,3.0807,3.0886,3.0924,3.1044,3.1092,3.1188,3.1307,3.1443,3.1532,3.1665,3.1863,3.1899,3.1948,3.1962,3.1973,3.1991,3.2104,3.2128,3.1874,3.1874,3.1874,0,0,3.0289,3.039,3.0467,3.0659,3.075,3.0882,3.0847,3.0989,3.1089,3.1114,3.1293,3.1368,3.1505,3.1697,3.1787,3.1764,3.2069,3.1988,3.1995,3.2008,3.2118,3.2142,3.2163,3.1882,3.188,3.1879,0,0,3.0445,3.0534,3.0675,3.0766,3.0902,3.0966,3.0999,3.1141,3.1191,3.1371,3.1393,3.1514,3.1747,3.1844,3.1924,3.2116,3.2129,3.2158,3.2233,3.2342,3.2362,3.238,3.2451,3.2475,3.2175,3.2175,3.2175,0,3.049,3.0687,3.0746,3.0887,3.0972,3.0998,3.1143,3.1229,3.1403,3.1463,3.1434,3.1727,3.1821,3.2037,3.2084,3.2147,3.219,3.2142,3.2354,3.2373,3.239,3.2459,3.2485,3.2178,3.2178,3.2177,3.2177,0,3.0736,3.0873,3.0971,3.1135,3.1231,3.1373,3.1456,3.1546,3.1575,3.1642,3.1826,3.1939,3.2096,3.2149,3.218,3.2371,3.2353,3.2338,3.2287,3.2416,3.2482,3.2509,3.2182,3.2181,3.218,3.2179,0,0,3.0905,3.1098,3.1134,3.1209,3.1361,3.147,3.1614,3.1764,3.1841,3.1961,3.2085,3.2281,3.2268,3.2359,3.2401,3.2496,3.2644,3.247,3.2474,3.25,3.2863,3.2875,3.2904,3.2651,3.2656,3.2661,3.2852,0,3.108,3.1335,3.1392,3.1612,3.1741,3.1766,3.1892,3.2001,3.2067,3.2188,3.2262,3.24,3.2372,3.2427,3.2522,3.2605,3.2718,3.2592,3.2771,3.2777,3.2738,3.2938,3.2952,3.3127,3.2878,3.2883,3.2886,0,3.132,3.1442,3.1674,3.1809,3.1866,3.1978,3.212,3.2234,3.2359,3.24,3.25,3.2532,3.2686,3.2625,3.2839,3.2752,3.2829,3.2881,3.2889,3.2911,3.2841,3.2968,3.3185,3.3212,3.2927,3.2923,3.292,0,3.1422,3.1644,3.1812,3.1876,3.2038,3.2116,3.2188,3.2307,3.2394,3.252,3.2577,3.272,3.2799,3.2909,3.298,3.2928,3.319,3.3134,3.3231,3.323,3.3287,3.3283,3.3522,3.3332,3.3332,3.3331,3.3331,0,3.1614,3.1756,3.1861,3.1964,3.2125,3.2189,3.2347,3.2419,3.2525,3.2645,3.2676,3.2789,3.2874,3.2999,3.3055,3.3225,3.326,3.33,3.3314,3.3299,3.3295,3.3353,3.3343,3.3338,3.3337,3.3335,3.3334,0,3.1757,3.1832,3.2017,3.2154,3.2192,3.2305,3.2423,3.2527,3.2592,3.2744,3.2783,3.2888,3.3037,3.3117,3.3304,3.3342,3.3533,3.3539,3.3491,3.3497,3.3591,3.3582,3.3878,3.3921,3.3699,3.3701,3.3703,0,3.1876,3.1985,3.2133,3.2214,3.2286,3.2417,3.2505,3.2573,3.2664,3.2814,3.29,3.3049,3.3173,3.341,3.3505,3.3649,3.366,3.3754,3.3682,3.3664,3.3665,3.3658,3.3671,3.3767,3.3769,3.3771,3.3772,0,3.2079,3.2111,3.2235,3.2373,3.2476,3.2589,3.2701,3.2766,3.2853,3.2954,3.3105,3.3201,3.339,3.354,3.3691,3.3768,3.3786,3.3793,3.3824,3.3811,3.378,3.38,3.3528,3.3787,3.3786,3.3784,3.3784,3.3783,3.2216,3.2314,3.2434,3.2572,3.2662,3.2765,3.2869,3.2946,3.3072,3.3231,3.3263,3.3424,3.3547,3.375,3.3831,3.396,3.3942,3.3985,3.3997,3.4007,3.4012,3.3756,3.3987,3.3987,3.3987,3.3986,3.3986,0,3.2423,3.25,3.2626,3.278,3.2889,3.2892,3.3016,3.3108,3.3247,3.3359,3.3479,3.3654,3.3799,3.3903,3.4052,3.4135,3.4147,3.4172,3.4168,3.4186,3.4019,3.3979,3.4159,3.4159,3.4159,3.4159,3.4159,3.4159,3.2544,3.2711,3.2757,3.297,3.3048,3.3203,3.3274,3.337,3.3459,3.3652,3.3771,3.3837,3.3947,3.4104,3.4238,3.4265,3.432,3.4344,3.4373,3.4216,3.4197,3.418,3.4143,3.4355,3.4355,3.453,3.4531,3.4532]}]]